Milk River, Alberta

12:33 AM MST on January 21, 2018 (GMT -0700)
Milk River

Weather History for 71244 - November, 2013

Change the Weather History Date:

Tuesday, November 5, 2013

  Actual Average Record
Temperature  
Mean Temperature 24 °F -  
Max Temperature 39 °F - - ()
Min Temperature 10 °F - - ()
Degree Days  
Heating Degree Days 40    
Moisture  
Dew Point 18 °F    
Average Humidity 74    
Maximum Humidity 91    
Minimum Humidity 44    
Precipitation  
Precipitation 0.00 in - - ()
Sea Level Pressure  
Sea Level Pressure 30.06 in    
Wind  
Wind Speed 6 mph ()    
Max Wind Speed 15 mph    
Max Gust Speed 21 mph    
T = Trace of Precipitation, MM = Missing Value Source: Averaged Metar Reports

Daily Weather History Graph

Daily Weather History Graph

Search for Another Location

Airport or City:

Trip Planner

Search our weather history database for the weather conditions in past years. The results will help you decide how hot, cold, wet, or windy it might be!

Date:

Astronomy

Nov. 05, 2013 Rise Set
Actual Time 7:22 AM MST 5:00 PM MST
Civil Twilight 6:48 AM MST 5:33 PM MST
Nautical Twilight 6:11 AM MST 6:11 PM MST
Astronomical Twilight 5:34 AM MST 6:48 PM MST
Moon 9:49 AM MST (11/5) 6:57 PM MST (11/5)
Length of Visible Light 10h 44m
Length of Day
9h 37m
Waxing Crescent, 7% of the Moon is Illuminated
Nov 5
Waxing Crescent
Nov 9
First Quarter
Nov 17
Full
Nov 25
Last Quarter
Dec 2
New

Hourly Weather History & Observations

Time (MST) Temp. Windchill Dew Point Humidity Pressure Visibility Wind Dir Wind Speed Gust Speed Precip Events Conditions
12:00 AM 22.1 °F 13.7 °F 18.9 °F 87% 30.11 in - SSE 6.9 mph - N/A   Unknown
1:00 AM 22.5 °F 14.1 °F 19.2 °F 87% 30.11 in - South 6.9 mph - N/A   Unknown
2:00 AM 20.5 °F 14.0 °F 18.0 °F 90% 30.10 in - South 4.6 mph - N/A   Unknown
3:00 AM 17.1 °F 10.0 °F 14.7 °F 91% 30.11 in - SW 4.6 mph - N/A   Unknown
4:00 AM 14.7 °F 7.3 °F 12.4 °F 90% 30.10 in - WSW 4.6 mph - N/A   Unknown
5:00 AM 14 °F - 10 °F 77% 30.10 in - West 6.9 mph - -  
5:00 AM 14.0 °F 3.9 °F 10.0 °F 84% 30.10 in - West 6.9 mph - N/A   Unknown
6:00 AM 11.8 °F 3.9 °F 8.4 °F 86% 30.11 in - West 4.6 mph - N/A   Unknown
7:00 AM 10.6 °F -0.2 °F 7.3 °F 87% 30.10 in - West 6.9 mph - N/A   Unknown
8:00 AM 14.7 °F 9.0 °F 10.2 °F 82% 30.10 in - West 3.5 mph - N/A   Unknown
9:00 AM 21.4 °F - 14.5 °F 75% 30.09 in - North 1.2 mph - N/A   Unknown
10:00 AM 30.9 °F 22.2 °F 19.9 °F 64% 30.06 in - SW 10.4 mph - N/A   Unknown
11:00 AM 36 °F - 22 °F 44% 30.04 in - WSW 12.7 mph - -  
11:00 AM 35.6 °F 27.1 °F 21.9 °F 58% 30.04 in - WSW 12.7 mph - N/A   Unknown
12:00 PM 37.8 °F 29.0 °F 20.8 °F 51% 30.02 in - West 15.0 mph - N/A   Unknown
1:00 PM 38.7 °F 30.1 °F 21.0 °F 49% 30.01 in - West 15.0 mph 20.7 mph N/A   Unknown
2:00 PM 37.8 °F 29.8 °F 20.5 °F 50% 30.02 in - WNW 12.7 mph - N/A   Unknown
3:00 PM 37.2 °F 29.6 °F 21.0 °F 52% 30.03 in - West 11.5 mph - N/A   Unknown
4:00 PM 34.9 °F 28.3 °F 21.9 °F 59% 30.03 in - West 8.1 mph - N/A   Unknown
5:00 PM 30 °F - 22 °F 63% 30.05 in - WSW 5.8 mph - -  
5:00 PM 29.7 °F 23.7 °F 22.3 °F 74% 30.05 in - WSW 5.8 mph - N/A   Unknown
6:00 PM 29.1 °F 25.4 °F 21.4 °F 73% 30.06 in - West 3.5 mph - N/A   Unknown
7:00 PM 29.3 °F 23.2 °F 21.9 °F 74% 30.06 in - WNW 5.8 mph - N/A   Unknown
8:00 PM 27.5 °F 22.2 °F 21.9 °F 80% 30.05 in - WNW 4.6 mph - N/A   Unknown
9:00 PM 25.9 °F 21.7 °F 21.4 °F 83% 30.03 in - NW 3.5 mph - N/A   Unknown
10:00 PM 25.2 °F 19.5 °F 21.0 °F 84% 30.03 in - WNW 4.6 mph - N/A   Unknown
11:00 PM 20 °F - 18 °F 87% 30.04 in - NW 5.8 mph - -  
11:00 PM 20.3 °F 12.5 °F 17.8 °F 90% 30.04 in - NW 5.8 mph - N/A   Unknown